time, Switch, Flow(0), Analog(2)
yyyy/mm/dd HH:MM:SS.fff, True=FILTERED|False=TOTAL, L/min, V
2023/06/07 02:55:23.054, False, 4.314, 0.135348
2023/06/07 02:55:23.558, False, 4.645, 0.138170
2023/06/07 02:55:24.053, False, 4.374, 0.138552
2023/06/07 02:55:24.558, False, 4.643, 0.137484
2023/06/07 02:55:25.061, False, 4.311, 0.138399
2023/06/07 02:55:25.557, False, 4.717, 0.136034
2023/06/07 02:55:26.061, False, 4.316, 0.135882
2023/06/07 02:55:26.566, False, 4.637, 0.137636
2023/06/07 02:55:27.062, False, 4.380, 0.136416
2023/06/07 02:55:27.566, False, 4.311, 0.136721
2023/06/07 02:55:28.070, False, 4.647, 0.139315
2023/06/07 02:55:28.566, False, 4.376, 0.137713
2023/06/07 02:55:29.070, False, 4.313, 0.136339
2023/06/07 02:55:29.574, False, 4.308, 0.137255
2023/06/07 02:55:30.070, False, 4.381, 0.136797
2023/06/07 02:55:30.574, False, 4.311, 0.137636
2023/06/07 02:55:31.078, False, 4.311, 0.138094
2023/06/07 02:55:31.574, False, 4.380, 0.134890
2023/06/07 02:55:32.078, False, 4.311, 0.136187
2023/06/07 02:55:32.582, False, 4.312, 0.138933
2023/06/07 02:55:33.078, False, 4.379, 0.137713
2023/06/07 02:55:33.582, False, 4.312, 0.137484
2023/06/07 02:55:34.086, False, 4.313, 0.136034
2023/06/07 02:55:34.582, False, 4.040, 0.137865
2023/06/07 02:55:35.086, False, 4.311, 0.137713
2023/06/07 02:55:35.582, False, 4.381, 0.138705
2023/06/07 02:55:36.086, False, 4.313, 0.138018
2023/06/07 02:55:36.590, False, 4.639, 0.136263
2023/06/07 02:55:37.094, False, 4.317, 0.135576
2023/06/07 02:55:37.590, False, 4.374, 0.138323
2023/06/07 02:55:38.094, False, 4.642, 0.137255
2023/06/07 02:55:38.598, False, 4.318, 0.136034
2023/06/07 02:55:39.094, False, 4.709, 0.138247
2023/06/07 02:55:39.598, False, 4.642, 0.139544
2023/06/07 02:55:40.102, False, 4.312, 0.137865
2023/06/07 02:55:40.598, False, 4.380, 0.137942
2023/06/07 02:55:41.102, False, 4.645, 0.137484
2023/06/07 02:55:41.606, False, 4.308, 0.141375
2023/06/07 02:55:42.102, False, 4.716, 0.137407
2023/06/07 02:55:42.606, False, 4.311, 0.137484
2023/06/07 02:55:43.110, False, 4.643, 0.136568
2023/06/07 02:55:43.606, False, 4.726, 0.137484
2023/06/07 02:55:44.110, False, 4.634, 0.137179
2023/06/07 02:55:44.614, False, 4.642, 0.138857
2023/06/07 02:55:45.109, False, 4.718, 0.138781
2023/06/07 02:55:45.614, False, 4.311, 0.137713
2023/06/07 02:55:46.118, False, 4.643, 0.137026
2023/06/07 02:55:46.614, False, 4.716, 0.138094
2023/06/07 02:55:47.118, False, 4.310, 0.138018
2023/06/07 02:55:47.622, False, 4.643, 0.137179
2023/06/07 02:55:48.126, False, 4.311, 0.137102
2023/06/07 02:55:48.622, False, 4.717, 0.140154
2023/06/07 02:55:49.126, False, 4.311, 0.137179
2023/06/07 02:55:49.622, False, 4.043, 0.135653
2023/06/07 02:55:50.126, False, 4.642, 0.139620
2023/06/07 02:55:50.630, False, 4.975, 0.188144
2023/06/07 02:55:51.126, False, 4.717, 0.189212
2023/06/07 02:55:51.630, False, 4.975, 0.174640
2023/06/07 02:55:52.133, False, 4.972, 0.167620
2023/06/07 02:55:52.630, False, 4.718, 0.163653
2023/06/07 02:55:53.134, False, 4.974, 0.159457
2023/06/07 02:55:53.638, False, 4.643, 0.155718
2023/06/07 02:55:54.134, False, 5.054, 0.152285
2023/06/07 02:55:54.638, False, 4.642, 0.148623
2023/06/07 02:55:55.141, False, 4.642, 0.148470
2023/06/07 02:55:55.646, False, 4.642, 0.149462
2023/06/07 02:55:56.142, False, 4.719, 0.148394
2023/06/07 02:55:56.646, False, 4.641, 0.146868
2023/06/07 02:55:57.150, False, 4.644, 0.149233
2023/06/07 02:55:57.646, False, 4.380, 0.152285
2023/06/07 02:55:58.150, False, 4.641, 0.154040
2023/06/07 02:55:58.654, False, 4.643, 0.155108
2023/06/07 02:55:59.150, False, 4.381, 0.157702
2023/06/07 02:55:59.654, False, 4.641, 0.153735
2023/06/07 02:56:00.150, False, 4.718, 0.156558
2023/06/07 02:56:00.654, False, 4.312, 0.157092
2023/06/07 02:56:01.158, False, 4.641, 0.156023
2023/06/07 02:56:01.662, False, 4.645, 0.152667
2023/06/07 02:56:02.157, False, 4.379, 0.152590
2023/06/07 02:56:02.662, False, 4.640, 0.157473
2023/06/07 02:56:03.166, False, 4.317, 0.149386
2023/06/07 02:56:03.662, False, 4.377, 0.146258
2023/06/07 02:56:04.165, False, 4.641, 0.148013
2023/06/07 02:56:04.670, False, 4.313, 0.144884
2023/06/07 02:56:05.166, False, 4.717, 0.147250
2023/06/07 02:56:05.670, False, 4.307, 0.141833
2023/06/07 02:56:06.166, False, 4.718, 0.145571
2023/06/07 02:56:06.670, False, 4.314, 0.141375
2023/06/07 02:56:07.174, False, 4.638, 0.142214
2023/06/07 02:56:07.669, False, 4.381, 0.141146
2023/06/07 02:56:08.174, False, 4.647, 0.138628
2023/06/07 02:56:08.677, False, 4.307, 0.137179
2023/06/07 02:56:09.174, False, 4.387, 0.138323
2023/06/07 02:56:09.678, False, 4.309, 0.135958
2023/06/07 02:56:10.181, False, 4.305, 0.139849
2023/06/07 02:56:10.686, False, 4.649, 0.136873
2023/06/07 02:56:11.182, False, 4.381, 0.137560
2023/06/07 02:56:11.686, False, 4.304, 0.138933
2023/06/07 02:56:12.190, False, 4.650, 0.139620
2023/06/07 02:56:12.686, False, 4.373, 0.136492
2023/06/07 02:56:13.190, False, 4.648, 0.137713
2023/06/07 02:56:13.694, False, 4.637, 0.139391
2023/06/07 02:56:14.198, False, 4.319, 0.136645
2023/06/07 02:56:14.693, False, 4.708, 0.137179
2023/06/07 02:56:15.198, False, 4.311, 0.136721
2023/06/07 02:56:15.702, False, 4.642, 0.137942
2023/06/07 02:56:16.198, False, 4.380, 0.136873
2023/06/07 02:56:16.702, False, 4.642, 0.139239
2023/06/07 02:56:17.206, False, 4.312, 0.137331
2023/06/07 02:56:17.702, False, 4.717, 0.136645
2023/06/07 02:56:18.206, False, 4.646, 0.139849
2023/06/07 02:56:18.710, False, 4.306, 0.136110
2023/06/07 02:56:19.206, False, 4.381, 0.140002
2023/06/07 02:56:19.710, False, 4.642, 0.138628
2023/06/07 02:56:20.214, False, 4.310, 0.136034
2023/06/07 02:56:20.710, False, 4.381, 0.136492
2023/06/07 02:56:21.214, False, 4.311, 0.136263
2023/06/07 02:56:21.718, False, 4.311, 0.139391
2023/06/07 02:56:22.222, False, 4.642, 0.136568
2023/06/07 02:56:22.718, False, 4.043, 0.138628
2023/06/07 02:56:23.222, False, 4.646, 0.136950
2023/06/07 02:56:23.718, False, 4.375, 0.140459
2023/06/07 02:56:24.222, False, 4.312, 0.137865
2023/06/07 02:56:24.725, False, 4.642, 0.139010
2023/06/07 02:56:25.221, False, 4.380, 0.138323
2023/06/07 02:56:25.726, False, 4.312, 0.137026
2023/06/07 02:56:26.229, False, 4.642, 0.136187
2023/06/07 02:56:26.725, False, 4.379, 0.135576
2023/06/07 02:56:27.230, False, 4.311, 0.136950
2023/06/07 02:56:27.734, False, 4.313, 0.136568
2023/06/07 02:56:28.229, False, 4.714, 0.137789
2023/06/07 02:56:28.734, False, 4.311, 0.135500
2023/06/07 02:56:29.230, False, 4.718, 0.137789
2023/06/07 02:56:29.733, False, 4.310, 0.136263
2023/06/07 02:56:30.237, False, 4.642, 0.138781
2023/06/07 02:56:30.734, False, 4.380, 0.137026
2023/06/07 02:56:31.237, False, 4.642, 0.138018
2023/06/07 02:56:31.741, False, 4.312, 0.137713
2023/06/07 02:56:32.237, False, 4.717, 0.138170
2023/06/07 02:56:32.742, False, 4.311, 0.137713
2023/06/07 02:56:33.246, False, 4.651, 0.137713
2023/06/07 02:56:33.742, False, 4.371, 0.138933
2023/06/07 02:56:34.245, False, 4.312, 0.136263
2023/06/07 02:56:34.750, False, 4.643, 0.137026
2023/06/07 02:56:35.246, False, 4.381, 0.136034
2023/06/07 02:56:35.749, False, 4.640, 0.137713
2023/06/07 02:56:36.254, False, 4.313, 0.136797
2023/06/07 02:56:36.750, False, 4.381, 0.137331
2023/06/07 02:56:37.254, False, 4.640, 0.135042
2023/06/07 02:56:37.758, False, 4.313, 0.135500
2023/06/07 02:56:38.253, False, 4.380, 0.138399
2023/06/07 02:56:38.758, False, 4.645, 0.134890
2023/06/07 02:56:39.262, False, 4.305, 0.138628
2023/06/07 02:56:39.758, False, 4.387, 0.136110
2023/06/07 02:56:40.262, False, 4.307, 0.138170
2023/06/07 02:56:40.766, False, 4.643, 0.138552
2023/06/07 02:56:41.262, False, 4.376, 0.137713
2023/06/07 02:56:41.766, False, 4.315, 0.138781
2023/06/07 02:56:42.270, False, 4.311, 0.139925
2023/06/07 02:56:42.766, False, 4.714, 0.137942
2023/06/07 02:56:43.270, False, 4.309, 0.137026
2023/06/07 02:56:43.774, False, 4.311, 0.136645
2023/06/07 02:56:44.270, False, 4.385, 0.144503
2023/06/07 02:56:44.774, False, 4.638, 0.140841
2023/06/07 02:56:45.278, False, 4.316, 0.137179
2023/06/07 02:56:45.774, False, 4.380, 0.138552
2023/06/07 02:56:46.278, False, 4.305, 0.136568
2023/06/07 02:56:46.782, False, 4.311, 0.137560
2023/06/07 02:56:47.278, False, 4.380, 0.137942
2023/06/07 02:56:47.782, False, 4.643, 0.135653
2023/06/07 02:56:48.286, False, 4.311, 0.137026
2023/06/07 02:56:48.782, False, 4.379, 0.138323
2023/06/07 02:56:49.286, False, 4.643, 0.135042
2023/06/07 02:56:49.790, False, 4.311, 0.137942
2023/06/07 02:56:50.286, False, 4.717, 0.138705
2023/06/07 02:56:50.790, False, 4.311, 0.138476
2023/06/07 02:56:51.294, False, 4.649, 0.135576
2023/06/07 02:56:51.790, False, 4.038, 0.135882
2023/06/07 02:56:52.294, False, 4.643, 0.137407
2023/06/07 02:56:52.790, False, 4.381, 0.137179
2023/06/07 02:56:53.294, False, 4.642, 0.138094
2023/06/07 02:56:53.798, False, 4.311, 0.136797
2023/06/07 02:56:54.294, False, 4.380, 0.135882
2023/06/07 02:56:54.798, False, 4.642, 0.139239
2023/06/07 02:56:55.302, False, 4.311, 0.136263
2023/06/07 02:56:55.798, False, 4.380, 0.137560
2023/06/07 02:56:56.302, False, 4.643, 0.136950
2023/06/07 02:56:56.806, False, 4.310, 0.138781
2023/06/07 02:56:57.302, False, 4.044, 0.137713
2023/06/07 02:56:57.806, False, 4.642, 0.137255
2023/06/07 02:56:58.310, False, 4.643, 0.136339
2023/06/07 02:56:58.806, False, 4.717, 0.136950
2023/06/07 02:56:59.310, False, 4.311, 0.138399
2023/06/07 02:56:59.806, False, 4.380, 0.137865
2023/06/07 02:57:00.310, False, 4.311, 0.136568
2023/06/07 02:57:00.814, False, 4.310, 0.137865
2023/06/07 02:57:01.310, False, 4.044, 0.138628
2023/06/07 02:57:01.814, False, 4.311, 0.139544
2023/06/07 02:57:02.318, False, 3.979, 0.138018
2023/06/07 02:57:02.814, False, 4.387, 0.138857
2023/06/07 02:57:03.318, False, 4.305, 0.137331
2023/06/07 02:57:03.822, False, 4.642, 0.138170
2023/06/07 02:57:04.318, False, 4.717, 0.138628
2023/06/07 02:57:04.821, False, 4.314, 0.137331
2023/06/07 02:57:05.326, False, 4.639, 0.138933
2023/06/07 02:57:05.822, False, 4.717, 0.137942
2023/06/07 02:57:06.326, False, 4.644, 0.137636
2023/06/07 02:57:06.830, False, 4.643, 0.138247
2023/06/07 02:57:07.326, False, 4.378, 0.136492
2023/06/07 02:57:07.830, False, 4.644, 0.139391
2023/06/07 02:57:08.334, False, 4.641, 0.136645
2023/06/07 02:57:08.830, False, 4.380, 0.136492
2023/06/07 02:57:09.334, False, 4.645, 0.138018
2023/06/07 02:57:09.838, False, 4.310, 0.136873
2023/06/07 02:57:10.334, False, 4.717, 0.138552
2023/06/07 02:57:10.838, False, 4.646, 0.137407
2023/06/07 02:57:11.342, False, 4.641, 0.137331
2023/06/07 02:57:11.837, False, 4.379, 0.137407
2023/06/07 02:57:12.342, False, 4.642, 0.137255
2023/06/07 02:57:12.838, False, 4.381, 0.135119
2023/06/07 02:57:13.342, False, 4.644, 0.135958
2023/06/07 02:57:13.846, False, 4.309, 0.137560
2023/06/07 02:57:14.349, False, 4.643, 0.137255
2023/06/07 02:57:14.846, False, 4.381, 0.137789
2023/06/07 02:57:15.349, False, 4.641, 0.136721
2023/06/07 02:57:15.854, False, 4.643, 0.138323
2023/06/07 02:57:16.350, False, 4.380, 0.139162
2023/06/07 02:57:16.854, False, 4.642, 0.137942
2023/06/07 02:57:17.358, False, 4.643, 0.134737
2023/06/07 02:57:17.854, False, 4.380, 0.138781
2023/06/07 02:57:18.358, False, 4.643, 0.137560
2023/06/07 02:57:18.862, False, 4.642, 0.137102
2023/06/07 02:57:19.358, False, 4.381, 0.136873
2023/06/07 02:57:19.862, False, 4.642, 0.136873
2023/06/07 02:57:20.366, False, 4.649, 0.137484
2023/06/07 02:57:20.862, False, 4.375, 0.138323
2023/06/07 02:57:21.366, False, 4.647, 0.137865
2023/06/07 02:57:21.870, False, 4.638, 0.137331
2023/06/07 02:57:22.366, False, 4.722, 0.137484
2023/06/07 02:57:22.870, False, 4.636, 0.135882
2023/06/07 02:57:23.374, False, 4.643, 0.136263
2023/06/07 02:57:23.870, False, 4.380, 0.138781
2023/06/07 02:57:24.374, False, 4.642, 0.136263
2023/06/07 02:57:24.878, False, 4.643, 0.137942
2023/06/07 02:57:25.374, False, 4.717, 0.136263
2023/06/07 02:57:25.877, False, 4.318, 0.136339
2023/06/07 02:57:26.382, False, 4.635, 0.139391
2023/06/07 02:57:26.878, False, 4.718, 0.137713
2023/06/07 02:57:27.381, False, 4.643, 0.137484
2023/06/07 02:57:27.886, False, 4.641, 0.138781
2023/06/07 02:57:28.382, False, 4.380, 0.135195
2023/06/07 02:57:28.886, False, 4.642, 0.134737
2023/06/07 02:57:29.382, False, 4.727, 0.137789
2023/06/07 02:57:29.886, False, 4.302, 0.137865
2023/06/07 02:57:30.390, False, 4.649, 0.136721
2023/06/07 02:57:30.894, False, 4.638, 0.138323
2023/06/07 02:57:31.390, False, 4.717, 0.138933
2023/06/07 02:57:31.894, False, 4.642, 0.138705
2023/06/07 02:57:32.398, False, 4.642, 0.136950
2023/06/07 02:57:32.894, False, 4.717, 0.138857
2023/06/07 02:57:33.398, False, 4.642, 0.137255
2023/06/07 02:57:33.902, False, 4.643, 0.135729
2023/06/07 02:57:34.398, False, 4.381, 0.138933
2023/06/07 02:57:34.902, False, 4.642, 0.138399
2023/06/07 02:57:35.406, False, 4.312, 0.137407
2023/06/07 02:57:35.902, False, 4.715, 0.139315
2023/06/07 02:57:36.406, False, 4.643, 0.139010
2023/06/07 02:57:36.902, False, 4.380, 0.137407
2023/06/07 02:57:37.405, False, 4.642, 0.138628
2023/06/07 02:57:37.910, False, 4.643, 0.136110
2023/06/07 02:57:38.405, False, 4.720, 0.137789
2023/06/07 02:57:38.910, False, 4.639, 0.137102
2023/06/07 02:57:39.414, False, 4.311, 0.138247
2023/06/07 02:57:39.910, False, 4.717, 0.137102
2023/06/07 02:57:40.414, False, 4.642, 0.139391
2023/06/07 02:57:40.917, False, 4.642, 0.136034
2023/06/07 02:57:41.421, False, 4.642, 0.138247
2023/06/07 02:57:41.918, False, 4.726, 0.136110
2023/06/07 02:57:42.422, False, 4.304, 0.136645
2023/06/07 02:57:42.926, False, 4.974, 0.139391
2023/06/07 02:57:43.422, False, 4.380, 0.139391
2023/06/07 02:57:43.925, False, 4.642, 0.136187
2023/06/07 02:57:44.430, False, 4.642, 0.137636
2023/06/07 02:57:44.926, False, 4.719, 0.136263
2023/06/07 02:57:45.430, False, 4.311, 0.139696
2023/06/07 02:57:45.926, False, 4.716, 0.135958
2023/06/07 02:57:46.430, False, 4.643, 0.139010
2023/06/07 02:57:46.934, False, 4.641, 0.136721
2023/06/07 02:57:47.429, False, 4.381, 0.136339
2023/06/07 02:57:47.934, False, 4.642, 0.139086
2023/06/07 02:57:48.438, False, 4.642, 0.136416
2023/06/07 02:57:48.934, False, 4.718, 0.137713
2023/06/07 02:57:49.438, False, 4.643, 0.136492
2023/06/07 02:57:49.942, False, 4.648, 0.135729
2023/06/07 02:57:50.438, False, 4.711, 0.137026
2023/06/07 02:57:50.942, False, 4.320, 0.136568
2023/06/07 02:57:51.446, False, 4.633, 0.137560
2023/06/07 02:57:51.941, False, 4.388, 0.135348
2023/06/07 02:57:52.446, False, 4.635, 0.137331
2023/06/07 02:57:52.950, False, 4.311, 0.138705
2023/06/07 02:57:53.446, False, 4.380, 0.137636
2023/06/07 02:57:53.950, False, 4.643, 0.137484
2023/06/07 02:57:54.454, False, 4.312, 0.137255
2023/06/07 02:57:54.950, False, 4.716, 0.139010
2023/06/07 02:57:55.454, False, 4.310, 0.137407
2023/06/07 02:57:55.957, False, 4.644, 0.137942
2023/06/07 02:57:56.454, False, 4.717, 0.139162
2023/06/07 02:57:56.958, False, 4.311, 0.137179
2023/06/07 02:57:57.462, False, 4.642, 0.135729
2023/06/07 02:57:57.958, False, 4.719, 0.137484
2023/06/07 02:57:58.462, False, 4.642, 0.136645
2023/06/07 02:57:58.966, False, 4.642, 0.136950
2023/06/07 02:57:59.462, False, 4.381, 0.138094
2023/06/07 02:57:59.966, False, 4.642, 0.138781
2023/06/07 02:58:00.470, False, 4.642, 0.136568
2023/06/07 02:58:00.966, False, 4.718, 0.134966
2023/06/07 02:58:01.469, False, 4.310, 0.137179
2023/06/07 02:58:01.973, False, 4.311, 0.136492
2023/06/07 02:58:02.470, False, 4.717, 0.138781
2023/06/07 02:58:02.974, False, 4.643, 0.137942
2023/06/07 02:58:03.477, False, 4.311, 0.136034
2023/06/07 02:58:03.973, False, 4.718, 0.140383
2023/06/07 02:58:04.478, False, 4.643, 0.134279
2023/06/07 02:58:04.974, False, 4.385, 0.138094
2023/06/07 02:58:05.477, False, 4.638, 0.139391
2023/06/07 02:58:05.981, False, 4.643, 0.138705
2023/06/07 02:58:06.478, False, 4.717, 0.138399
2023/06/07 02:58:06.981, False, 4.647, 0.138476
2023/06/07 02:58:07.485, False, 4.307, 0.137484
2023/06/07 02:58:07.982, False, 4.717, 0.144808
2023/06/07 02:58:08.485, False, 4.642, 0.142977
2023/06/07 02:58:08.989, False, 4.646, 0.137713
2023/06/07 02:58:09.485, False, 4.377, 0.137026
2023/06/07 02:58:09.989, False, 4.644, 0.137026
2023/06/07 02:58:10.493, False, 4.641, 0.137865
2023/06/07 02:58:10.989, False, 4.381, 0.136568
2023/06/07 02:58:11.493, False, 4.642, 0.136416
2023/06/07 02:58:11.990, False, 4.720, 0.141756
2023/06/07 02:58:12.493, False, 4.640, 0.137713
2023/06/07 02:58:12.997, False, 4.642, 0.137484
2023/06/07 02:58:13.494, False, 4.381, 0.134966
2023/06/07 02:58:13.997, False, 4.648, 0.137713
2023/06/07 02:58:14.502, False, 4.305, 0.136110
2023/06/07 02:58:14.998, False, 4.719, 0.138781
2023/06/07 02:58:15.501, False, 4.651, 0.137865
2023/06/07 02:58:16.006, False, 4.302, 0.137865
2023/06/07 02:58:16.502, False, 4.719, 0.138323
2023/06/07 02:58:17.005, False, 4.646, 0.137713
2023/06/07 02:58:17.510, False, 4.313, 0.135729
2023/06/07 02:58:18.006, False, 4.713, 0.137560
2023/06/07 02:58:18.510, False, 4.642, 0.136568
2023/06/07 02:58:19.013, False, 4.645, 0.137636
2023/06/07 02:58:19.509, False, 4.379, 0.138705
2023/06/07 02:58:20.013, False, 4.307, 0.137713
2023/06/07 02:58:20.509, False, 4.721, 0.135882
2023/06/07 02:58:21.014, False, 4.647, 0.136492
2023/06/07 02:58:21.517, False, 4.304, 0.136721
2023/06/07 02:58:22.014, False, 4.380, 0.138705
2023/06/07 02:58:22.518, False, 4.647, 0.135576
2023/06/07 02:58:23.021, False, 4.648, 0.139162
2023/06/07 02:58:23.517, False, 4.375, 0.137407
2023/06/07 02:58:24.021, False, 4.638, 0.136568
2023/06/07 02:58:24.525, False, 4.311, 0.134356
2023/06/07 02:58:25.022, False, 4.717, 0.136263
2023/06/07 02:58:25.526, False, 4.642, 0.137942
2023/06/07 02:58:26.030, False, 4.642, 0.137713
2023/06/07 02:58:26.526, False, 4.388, 0.137942
2023/06/07 02:58:27.030, False, 4.635, 0.137560
2023/06/07 02:58:27.534, False, 4.642, 0.137331
2023/06/07 02:58:28.037, False, 4.643, 0.136950
2023/06/07 02:58:28.534, False, 4.726, 0.136339
2023/06/07 02:58:29.038, False, 4.634, 0.137484
2023/06/07 02:58:29.533, False, 4.380, 0.137865
2023/06/07 02:58:30.037, False, 4.646, 0.137865
2023/06/07 02:58:30.542, False, 4.639, 0.138476
2023/06/07 02:58:31.038, False, 4.380, 0.137407
2023/06/07 02:58:31.541, False, 4.649, 0.136110
2023/06/07 02:58:32.045, False, 4.636, 0.136873
2023/06/07 02:58:32.542, False, 4.385, 0.139239
2023/06/07 02:58:33.046, False, 4.642, 0.137942
2023/06/07 02:58:33.550, False, 4.638, 0.138170
2023/06/07 02:58:34.046, False, 4.381, 0.137560
2023/06/07 02:58:34.550, False, 4.642, 0.136568
2023/06/07 02:58:35.053, False, 4.311, 0.137789
2023/06/07 02:58:35.550, False, 4.716, 0.137331
2023/06/07 02:58:36.053, False, 4.649, 0.137789
2023/06/07 02:58:36.557, False, 4.305, 0.139620
2023/06/07 02:58:37.062, False, 4.974, 0.136568
2023/06/07 02:58:37.558, False, 4.380, 0.138476
2023/06/07 02:58:38.062, False, 4.642, 0.139239
2023/06/07 02:58:38.557, False, 4.718, 0.137255
2023/06/07 02:58:39.061, False, 4.642, 0.137331
2023/06/07 02:58:39.565, False, 4.646, 0.137713
2023/06/07 02:58:40.062, False, 4.377, 0.137484
2023/06/07 02:58:40.565, False, 4.642, 0.137789
2023/06/07 02:58:41.069, False, 4.316, 0.135805
2023/06/07 02:58:41.566, False, 4.712, 0.137026
2023/06/07 02:58:42.069, False, 4.311, 0.136873
2023/06/07 02:58:42.574, False, 4.642, 0.136568
2023/06/07 02:58:43.069, False, 4.718, 0.137789
2023/06/07 02:58:43.574, False, 4.643, 0.135576
2023/06/07 02:58:44.077, False, 4.642, 0.137179
2023/06/07 02:58:44.574, False, 4.717, 0.138323
2023/06/07 02:58:45.078, False, 4.643, 0.138705
2023/06/07 02:58:45.574, False, 4.381, 0.137331
2023/06/07 02:58:46.077, False, 4.642, 0.136339
2023/06/07 02:58:46.581, False, 4.310, 0.139086
2023/06/07 02:58:47.077, False, 4.725, 0.138170
2023/06/07 02:58:47.581, False, 4.634, 0.136416
2023/06/07 02:58:48.086, False, 4.311, 0.137865
2023/06/07 02:58:48.582, False, 4.718, 0.134356
2023/06/07 02:58:49.086, False, 4.642, 0.136263
2023/06/07 02:58:49.590, False, 4.643, 0.135424
2023/06/07 02:58:50.086, False, 4.716, 0.138933
2023/06/07 02:58:50.590, False, 4.644, 0.136797
2023/06/07 02:58:51.094, False, 4.642, 0.137102
2023/06/07 02:58:51.589, False, 4.380, 0.134890
2023/06/07 02:58:52.094, False, 4.641, 0.137942
2023/06/07 02:58:52.598, False, 4.312, 0.136263
2023/06/07 02:58:53.094, False, 4.716, 0.138170
2023/06/07 02:58:53.597, False, 4.642, 0.138628
2023/06/07 02:58:54.094, False, 4.718, 0.135653
2023/06/07 02:58:54.598, False, 4.311, 0.137789
2023/06/07 02:58:55.102, False, 4.642, 0.139391
2023/06/07 02:58:55.598, False, 4.716, 0.137026
2023/06/07 02:58:56.102, False, 4.311, 0.138323
2023/06/07 02:58:56.605, False, 4.648, 0.138476
2023/06/07 02:58:57.102, False, 4.711, 0.135424
2023/06/07 02:58:57.606, False, 4.644, 0.137407
2023/06/07 02:58:58.109, False, 4.310, 0.137789
2023/06/07 02:58:58.606, False, 4.717, 0.135576
2023/06/07 02:58:59.110, False, 4.311, 0.137789
2023/06/07 02:58:59.614, False, 4.311, 0.138552
2023/06/07 02:59:00.109, False, 4.718, 0.137331
2023/06/07 02:59:00.614, False, 4.311, 0.135424
2023/06/07 02:59:01.118, False, 4.643, 0.135500
2023/06/07 02:59:01.614, False, 4.717, 0.138781
2023/06/07 02:59:02.118, False, 4.643, 0.134890
2023/06/07 02:59:02.622, False, 4.310, 0.138323
2023/06/07 02:59:03.118, False, 4.718, 0.136568
2023/06/07 02:59:03.621, False, 4.648, 0.137102
2023/06/07 02:59:04.125, False, 4.638, 0.138705
2023/06/07 02:59:04.622, False, 4.379, 0.137560
2023/06/07 02:59:05.126, False, 4.642, 0.136721
2023/06/07 02:59:05.630, False, 4.642, 0.137026
2023/06/07 02:59:06.125, False, 4.381, 0.137713
2023/06/07 02:59:06.629, False, 4.642, 0.138781
2023/06/07 02:59:07.133, False, 4.642, 0.136492
2023/06/07 02:59:07.629, False, 4.380, 0.137636
2023/06/07 02:59:08.133, False, 4.642, 0.139391
2023/06/07 02:59:08.637, False, 4.642, 0.135805
2023/06/07 02:59:09.133, False, 4.718, 0.135424
2023/06/07 02:59:09.637, False, 4.643, 0.137102
2023/06/07 02:59:10.141, False, 4.642, 0.137255
2023/06/07 02:59:10.645, False, 4.649, 0.135729
2023/06/07 02:59:11.141, False, 4.374, 0.136645
2023/06/07 02:59:11.645, False, 4.642, 0.134890
2023/06/07 02:59:12.141, False, 4.717, 0.137179
2023/06/07 02:59:12.645, False, 4.642, 0.137102
2023/06/07 02:59:13.149, False, 4.643, 0.137331
2023/06/07 02:59:13.645, False, 4.380, 0.138933
2023/06/07 02:59:14.149, False, 4.642, 0.138323
2023/06/07 02:59:14.653, False, 4.642, 0.138476
2023/06/07 02:59:15.149, False, 4.717, 0.139010
2023/06/07 02:59:15.653, False, 4.643, 0.136950
2023/06/07 02:59:16.157, False, 4.642, 0.136873
2023/06/07 02:59:16.653, False, 4.718, 0.136721
2023/06/07 02:59:17.157, False, 4.641, 0.136797
2023/06/07 02:59:17.661, False, 4.643, 0.137942
2023/06/07 02:59:18.157, False, 4.717, 0.136721
2023/06/07 02:59:18.661, False, 4.641, 0.144427
2023/06/07 02:59:19.165, False, 4.643, 0.136416
2023/06/07 02:59:19.661, False, 4.720, 0.137331
2023/06/07 02:59:20.165, False, 4.649, 0.135424
2023/06/07 02:59:20.669, False, 4.311, 0.135958
2023/06/07 02:59:21.165, False, 4.708, 0.137331
2023/06/07 02:59:21.669, False, 4.641, 0.138781
2023/06/07 02:59:22.173, False, 4.645, 0.138552
2023/06/07 02:59:22.669, False, 4.381, 0.137255
2023/06/07 02:59:23.173, False, 4.641, 0.139544
2023/06/07 02:59:23.669, False, 4.717, 0.137102
2023/06/07 02:59:24.173, False, 4.312, 0.137636
2023/06/07 02:59:24.677, False, 4.310, 0.137484
2023/06/07 02:59:25.173, False, 4.717, 0.136645
2023/06/07 02:59:25.677, False, 4.645, 0.137255
2023/06/07 02:59:26.181, False, 4.638, 0.139010
2023/06/07 02:59:26.685, False, 4.643, 0.136568